This demonstration page uses our WeatherBlox Daily Observations layout. Learn more.

Left ArrowRight Arrow

Hourly Observations for October 13, 2018

Temp ( °F °C ) Dew Point ( °F °C ) Humidity (%) Winds ( mph kmh ) Pressure ( in mb ) Visibility ( mi km ) Precip ( " mm )
12:57 am 00:57 Clear 37 2.8 34 1.1 89 89 SSW 9 15 29.92 1013 10 16 0.00 0.00
1:57 am 01:57 Clear 40 4.4 36 2.2 86 86 SSW 10 17 29.90 1013 10 16 0.00 0.00
2:57 am 02:57 Clear 40 4.4 37 2.8 89 89 SSW 13 20 29.90 1013 10 16 0.00 0.00
3:57 am 03:57 Clear 41 5 38 3.3 89 89 SSW 12 19 29.88 1012 10 16 0.00 0.00
4:57 am 04:57 Clear 41 5 38 3.3 89 89 SSW 12 19 29.85 1011 10 16 0.00 0.00
5:57 am 05:57 Clear 40 4.4 38 3.3 93 93 SSW 9 15 29.85 1011 10 16 0.00 0.00
6:57 am 06:57 Clear 40 4.4 37 2.8 89 89 SW 7 11 29.85 1011 10 16 0.00 0.00
7:57 am 07:57 Sunny 39 3.9 37 2.8 93 93 SSW 14 22 29.85 1011 10 16 0.00 0.00
8:57 am 08:57 Cloudy 41 5 38 3.3 89 89 SSW 15 24 29.85 1011 10 16 0.00 0.00
9:57 am 09:57 Sunny 47 8.3 41 5 80 80 SSW 15 24 29.84 1011 10 16 0.00 0.00
10:57 am 10:57 Cloudy 51 10.6 42 5.6 71 71 SW 14 22 29.85 1011 10 16 0.00 0.00
11:57 am 11:57 Cloudy 55 12.8 43 6.1 64 64 SW 17 28 29.83 1010 10 16 0.00 0.00
12:57 pm 12:57 Mostly Cloudy 60 15.6 45 7.2 58 58 SSW 9 15 29.81 1009 10 16 0.00 0.00
1:57 pm 13:57 Mostly Sunny 62 16.7 47 8.3 58 58 SSW 10 17 29.77 1008 10 16 0.00 0.00
2:57 pm 14:57 Mostly Cloudy 64 17.8 49 9.4 58 58 S 8 13 29.75 1007 10 16 0.00 0.00
3:57 pm 15:57 Cloudy 62 16.7 51 10.6 67 67 S 7 11 29.73 1007 10 16 0.00 0.00
4:57 pm 16:57 Cloudy with Light Rain 59 15 54 12.2 83 83 NW 8 13 29.74 1007 10 16 0.02 0.51
5:35 pm 17:35 Cloudy with Rain 54 12 52 11 94 94 N 17 28 29.77 1008 10 16 0.00 0.00
5:57 pm 17:57 Cloudy with Rain 50 10 48 8.9 93 93 NNE 14 22 29.80 1009 7 11 0.08 2.03
6:31 pm 18:31 Cloudy with Light Rain 48 9 46 8 94 94 NE 13 20 29.83 1010 10 16 0.00 0.00
6:57 pm 18:57 Cloudy with Rain 49 9.4 46 7.8 90 90 NE 14 22 29.83 1010 7 11 0.13 3.30
7:57 pm 19:57 Cloudy with Light Rain 48 8.9 46 7.8 93 93 NE 15 24 29.86 1011 10 16 0.04 1.02
8:57 pm 20:57 Cloudy with Light Rain 47 8.3 46 7.8 97 97 NE 14 22 29.88 1012 10 16 0.00 0.03
9:11 pm 21:11 Cloudy with Light Rain 46 8 46 8 100 100 NE 14 22 29.88 1012 10 16 0.00 0.03
9:33 pm 21:33 Cloudy with Light Rain 46 8 45 7 93 93 NE 15 24 29.88 1012 10 16 0.00 0.00
9:57 pm 21:57 Cloudy with Light Rain 46 7.8 45 7.2 96 96 NNE 15 24 29.90 1012 8 13 0.01 0.25
10:40 pm 22:40 Cloudy with Light Rain 46 8 45 7 93 93 NNE 21 33 29.91 1013 5 8 0.01 0.25
10:57 pm 22:57 Cloudy with Light Rain 46 7.8 45 7.2 96 96 NE 17 28 29.91 1013 4 6 0.01 0.25
11:57 pm 23:57 Cloudy with Light Rain 42 5.6 41 5 96 96 NNE 22 35 29.92 1013 4 6 0.01 0.25

Powered by AerisWeather